TimeEST,TemperatureF,Dew PointF,Humidity,Sea Level PressureIn,VisibilityMPH,Wind Direction,Wind SpeedMPH,Gust SpeedMPH,PrecipitationIn,Events,Conditions,WindDirDegrees,DateUTC
12:53 AM,-11.0,-16.1,78,30.04,10.0,Calm,Calm,-,N/A,,Clear,0,2014-01-23 05:53:00
1:53 AM,-9.0,-15.0,75,30.05,10.0,North,3.5,-,N/A,,Clear,350,2014-01-23 06:53:00
2:53 AM,-4.0,-13.0,65,30.06,10.0,West,5.8,-,N/A,,Clear,270,2014-01-23 07:53:00
3:53 AM,-11.9,-17.0,78,30.07,10.0,Calm,Calm,-,N/A,,Clear,0,2014-01-23 08:53:00
4:53 AM,-11.0,-17.0,75,30.06,10.0,Calm,Calm,-,N/A,,Clear,0,2014-01-23 09:53:00
5:53 AM,-8.0,-14.1,75,30.08,10.0,Calm,Calm,-,N/A,,Clear,0,2014-01-23 10:53:00
6:53 AM,-8.0,-11.9,83,30.09,10.0,Calm,Calm,-,N/A,,Clear,0,2014-01-23 11:53:00
7:53 AM,-8.0,-13.0,79,30.10,10.0,Calm,Calm,-,N/A,,Clear,0,2014-01-23 12:53:00
8:53 AM,-4.0,-8.0,83,30.11,10.0,Calm,Calm,-,N/A,,Clear,0,2014-01-23 13:53:00
9:53 AM,1.9,-5.1,72,30.12,10.0,Calm,Calm,-,N/A,,Partly Cloudy,0,2014-01-23 14:53:00
10:53 AM,3.9,-7.1,60,30.12,10.0,ESE,3.5,-,N/A,,Scattered Clouds,110,2014-01-23 15:53:00
11:53 AM,5.0,-8.0,55,30.10,10.0,ESE,4.6,-,0.00,Snow,Light Snow,120,2014-01-23 16:53:00
12:53 PM,7.0,-8.0,51,30.09,10.0,East,4.6,-,0.00,,Clear,90,2014-01-23 17:53:00
1:53 PM,7.0,-0.9,70,30.09,10.0,NNE,8.1,-,N/A,,Clear,20,2014-01-23 18:53:00
2:53 PM,6.1,-0.9,73,30.11,10.0,NNE,5.8,-,N/A,,Mostly Cloudy,30,2014-01-23 19:53:00
3:53 PM,5.0,-5.1,63,30.13,10.0,North,5.8,-,N/A,,Clear,10,2014-01-23 20:53:00
4:53 PM,5.0,-6.0,61,30.15,10.0,NNE,4.6,-,N/A,,Partly Cloudy,20,2014-01-23 21:53:00
5:53 PM,3.0,-6.0,66,30.17,10.0,Calm,Calm,-,N/A,,Scattered Clouds,0,2014-01-23 22:53:00
6:53 PM,-0.0,-6.0,76,30.19,10.0,NNW,3.5,-,N/A,,Scattered Clouds,340,2014-01-23 23:53:00
7:53 PM,3.0,-9.9,55,30.22,10.0,West,8.1,-,N/A,,Clear,280,2014-01-24 00:53:00
8:53 PM,1.9,-11.0,55,30.23,10.0,Variable,5.8,-,N/A,,Partly Cloudy,0,2014-01-24 01:53:00
9:53 PM,-0.0,-11.9,57,30.25,10.0,WNW,6.9,-,N/A,,Partly Cloudy,300,2014-01-24 02:53:00
10:53 PM,-0.9,-13.0,57,30.25,10.0,Calm,Calm,-,N/A,,Clear,0,2014-01-24 03:53:00
11:53 PM,-0.9,-13.0,57,30.25,10.0,West,5.8,-,N/A,,Clear,260,2014-01-24 04:53:00